Home   Weather   Gary   Past weeks

Flag for USA Past Weather in Gary, Indiana, USA — Yesterday and Last 2 Weeks

38 °F


Feels Like: 35 °F
Forecast: 42 / 59 °F
Wind: 3 mph from Northwest

Location: Lansing Municipal Airport

Current Time: Oct 22, 2016 at 3:51:19 AM

Latest Report: Oct 22, 2016 at 3:15 AM

Visibility: 10 mi

Pressure: 30.13 "Hg

Humidity: 83%

Dew Point: 33 °F

Location of GaryLocation

Past Weather in Gary — Graph


Gary Temperature Yesterday

Maximum temperature yesterday: 53 °F (at 11:55 AM)
Minimum temperature yesterday: 40 °F (at 10:35 PM)
Average temperature yesterday: 46 °F

High & Low Weather Summary for the Past Weeks

High82 °F (Oct 17, 3:55 PM)100% (Oct 9, 1:55 AM)30.38 "Hg (Oct 9, 1:55 AM)
Low37 °F (Oct 14, 2:15 AM)48% (Oct 11, 3:55 PM)29.52 "Hg (Oct 17, 7:35 PM)
Average58 °F81%30.09 "Hg
* Reported Oct 7 2:15 AM — Oct 22 2:35 AM, Gary, Weather by CustomWeather, © 2016

Note: Actual official high and low records may vary slightly from our data, if they occured in-between our weather recording intervals... More about our weather records


Gary Weather History for the Previous 24 Hours

Scroll right to see more
Time TempWeatherWind HumidityBarometerVisibility
2:35 AM
Sat, Oct 22
38 °FClear.5 mph82%30.13 "Hg10 mi
2:15 AM38 °FClear.3 mph82%30.13 "Hg10 mi
1:55 AM39 °FClear.No wind79%30.12 "Hg10 mi
1:35 AM40 °FClear.3 mph77%30.12 "Hg10 mi
1:15 AM40 °FClear.7 mph77%30.13 "Hg10 mi
12:55 AM40 °FClear.7 mph75%30.12 "Hg10 mi
12:35 AM41 °FClear.8 mph74%30.12 "Hg10 mi
12:15 AM41 °FClear.7 mph75%30.12 "Hg10 mi
11:55 PM
Fri, Oct 21
41 °FClear.7 mph74%30.12 "Hg10 mi
11:35 PM40 °FClear.6 mph76%30.12 "Hg10 mi
11:15 PM40 °FClear.6 mph78%30.13 "Hg10 mi
10:55 PM41 °FClear.3 mph77%30.13 "Hg10 mi
10:35 PM40 °FClear.3 mph78%30.12 "Hg10 mi
10:15 PM40 °FClear.3 mph78%30.13 "Hg10 mi
9:55 PM40 °FClear.3 mph78%30.13 "Hg10 mi
9:35 PM40 °FClear.5 mph78%30.13 "Hg10 mi
9:15 PM41 °FClear.5 mph78%30.13 "Hg10 mi
8:55 PM41 °FClear.3 mph76%30.13 "Hg10 mi
8:35 PM43 °FClear.3 mph72%30.13 "Hg10 mi
8:15 PM44 °FClear.3 mph69%30.14 "Hg10 mi
7:55 PM44 °FClear.3 mph69%30.14 "Hg10 mi
7:15 PM46 °FPassing clouds.8 mph66%30.15 "Hg10 mi
6:55 PM47 °FPartly cloudy.7 mph66%30.15 "Hg10 mi
6:15 PM48 °FMostly cloudy.9 mph65%30.14 "Hg10 mi
5:55 PM48 °FMostly cloudy.10 mph65%30.14 "Hg10 mi
5:35 PM48 °FMostly cloudy.7 mph66%30.14 "Hg10 mi
5:15 PM49 °FMostly cloudy.8 mph66%30.14 "Hg10 mi
4:55 PM49 °FMostly cloudy.13 mph66%30.14 "Hg10 mi
4:35 PM49 °FOvercast.9 mph67%30.14 "Hg10 mi
4:15 PM49 °FOvercast.13 mph67%30.14 "Hg10 mi
3:55 PM50 °FOvercast.10 mph68%30.13 "Hg10 mi
3:35 PM50 °FOvercast.9 mph66%30.13 "Hg10 mi
3:15 PM50 °FOvercast.8 mph66%30.13 "Hg10 mi
2:55 PM51 °FPartly sunny.8 mph65%30.13 "Hg10 mi
2:35 PM51 °FBroken clouds.8 mph66%30.13 "Hg10 mi
2:15 PM53 °FMore clouds than sun.9 mph65%30.14 "Hg10 mi
1:55 PM52 °FBroken clouds.8 mph67%30.14 "Hg10 mi
1:15 PM51 °FMore clouds than sun.9 mph70%30.16 "Hg10 mi
12:55 PM51 °FPartly sunny.9 mph71%30.16 "Hg10 mi
12:35 PM52 °FPartly sunny.9 mph72%30.16 "Hg10 mi
12:15 PM52 °FPartly sunny.12 mph73%30.17 "Hg10 mi
11:55 AM53 °FPartly sunny.14 mph72%30.17 "Hg10 mi
11:35 AM51 °FPartly sunny.13 mph77%30.18 "Hg10 mi
11:15 AM51 °FScattered clouds.13 mph78%30.17 "Hg10 mi
10:55 AM49 °FPartly sunny.12 mph83%30.17 "Hg10 mi
10:35 AM49 °FMostly cloudy.8 mph85%30.17 "Hg10 mi
10:15 AM48 °FOvercast.6 mph87%30.17 "Hg10 mi
9:55 AM47 °FMostly cloudy.9 mph90%30.17 "Hg10 mi
9:15 AM45 °FLight rain. More clouds than sun.13 mph95%30.18 "Hg10 mi
8:55 AM45 °FRain. Cloudy.13 mph95%30.18 "Hg10 mi
8:35 AM45 °FLight rain. Cloudy.10 mph97%30.17 "Hg7 mi
8:15 AM45 °FHeavy rain. Mostly cloudy.10 mph97%30.16 "Hg10 mi
7:55 AM45 °FLight rain. Mostly cloudy.9 mph97%30.15 "Hg7 mi
7:35 AM44 °FLight rain. Cloudy.10 mph98%30.14 "Hg7 mi
7:15 AM44 °FRain. Mostly cloudy.12 mph96%30.13 "Hg7 mi
6:55 AM44 °FRain. Mostly cloudy.9 mph91%30.13 "Hg10 mi
6:35 AM44 °FRain. Overcast.8 mph89%30.13 "Hg10 mi
6:15 AM44 °FLight rain. Cloudy.9 mph84%30.13 "Hg10 mi
5:55 AM44 °FMostly cloudy.9 mph80%30.13 "Hg10 mi
5:35 AM44 °FPartly cloudy.9 mph79%30.13 "Hg10 mi
5:15 AM43 °FPassing clouds.8 mph79%30.13 "Hg10 mi
4:55 AM43 °FClear.8 mph79%30.12 "Hg10 mi
4:35 AM44 °FPassing clouds.8 mph76%30.13 "Hg10 mi
4:15 AM44 °FPassing clouds.10 mph76%30.12 "Hg10 mi
3:55 AM44 °FPartly cloudy.9 mph75%30.12 "Hg10 mi
3:15 AM44 °FPassing clouds.8 mph74%30.13 "Hg10 mi
Weather by CustomWeather, © 2016

See weather overviewHow to use our weather pages